GAOFEN 12-05

导读 | 豆包AI

GAOFEN 12-05(高分十二号05星)是中国研制的高分遥感卫星,于北京时间2024年10月16日7时45分(对应你提供的UTC时间10月15日08:00:00),在酒泉卫星发射中心通过长征四号丙运载火箭发射升空,卫星顺利进入预定轨道,发射任务取得圆满成功。 该卫星将主要服务于国土普查、城市规划、土地确权、路网设计、农作物估产和防灾减灾等领域,为国民经济发展提供空间信息支撑。此次发射也是长征系列运载火箭的第540次飞行任务。

基本信息
目录编号:
61571
目录名称:
GAOFEN 12-05
国际标识:
2024-186A
轨道中心:
EARTH
卫星名称:
GAOFEN 12-05
卫星全名:
GAOFEN 12-05
卫星状态:
在轨 (已飞行560 天)
发射日期:
2024-10-15 UTC
国别 :
中国 (CN)
星等 :
--
轨道信息
数据来源 国际轨道数据 AOE轨道数据
星历时间 2026-04-28T19:26:03+0800
10小时前
查看轨道信息
2026-04-28T08:00:00+0800
21小时前
查看轨道信息
半长轴 7004.569km 7004.565km
偏心率 0.0002363 0.0002612
轨道倾角 97.911° 97.913°
近地点辐角 88.251° 79.057°
升交点赤经 127.279° 126.810°
平近点角 271.897° 262.676°
近地点 624.776km 624.598km
远地点 628.088km 628.258km
周期 97.237分钟 97.237分钟
每日圈数 14.809169 14.809183
详细信息
使用方式:
暂无
2D轨道图
3D轨道图
轨道高度分析图
轨道倾角分析图
轨道综合分析图
查看轨道综合分析图